FENGYUN 1C DEB, 32331

Orbit data source: Space-Track

FENGYUN 1C DEB, 32331 is space debris in SSO originally from a launch on Mon, 10 May 1999 UTC launched from the Taiyaun Space Center, China (TSC). Fengyun 1C debris stems from the Chinese weather satellite Fengyun-1C, which was intentionally destroyed by a Chinese anti-satellite missile in 2007. This event dramatically increased the amount of space debris, with thousands of trackable fragments posing hazards to satellites and human spaceflight. The Fengyun 1C debris cloud has become a focal point in discussions about space sustainability and the need for international regulations to prevent the creation of new debris.

Loading next visibility...
Identifier
32331, 1999-025CXY
Orbit
SSO
Country
Flag of CNCN / PRC
Related business
Manufacturer
Unknown
Mission
Spacecraft
Bus & Motor
Unknown
Mass
Unknown
Launch date (UTC)
1999-05-10 (27 years ago)
Launch vehicle
Unknown
Launch site
Taiyaun Space Center, China (TSC)
Object type
Payload
Rocket body
Debris
Shape & HBR
Unknown shape, 0.1 m
Radar Cross Section
Small (<0.1 m²)

Expand to show TLE details & history
Last TLE update: 2 days ago

TLE from 2 days ago
0 FENGYUN 1C DEB
1 32331U 99025CXY 26122.92885912  .00044347  00000-0  52765-2 0  9993
2 32331  99.1752 115.0772 0016487  60.4882 299.7970 14.84099397627040
Epoch: 2026-05-02T22:17Z
TLE epoch observation values (Epoch: 2026-05-02T22:17:33.427Z)
Latitude
-0.00004°
Longitude
-80.15179°
Altitude
613.683 km
Speed
7.555 km/s
True Right ascension
07h 40m 18s
True Declination
0° 00' 00"
Sunlit
Object was in daylight at epoch
Visualization orbit readout
Latitude
Unknown
Longitude
Unknown
Altitude
Unknown
Speed
Unknown
Apparent Right ascension
Unknown
Apparent Declination
Unknown
Sunlit
N/A
Visualization observer readout
Local Sidereal Time
23:29:10
Azimuth
Unknown
Elevation
Unknown
Doppler factor
Unknown
Orbital elements
Apogee altitude
625.038 km
Perigee altitude
601.984 km
Semi-major axis
6,991.648 km
Eccentricity
0.00165
Inclination
99.1752°
RAAN
115.0772°
Arg. of periapsis
60.4882°
True anomaly
299.63288°
Mean anomaly
299.797°
Eccentric anomaly
299.71496°
Mean motion
3.71256 °/min
Orbital period
96.97 mins
BSTAR
0.0052765
Loading maneuver chart data...
Computing Atmospheric mass density...
Loading historical data...
Loading historical data...
Loading historical data...
Loading historical data...
Loading historical data...
Loading historical data...
Loading historical data...

Documentation

Showing up to 5 results
|